Date,TemperatureHighF,TemperatureAvgF,TemperatureLowF,DewpointHighF,DewpointAvgF,DewpointLowF,HumidityHigh,HumidityAvg,HumidityLow,PressureMaxIn,PressureMinIn,WindSpeedMaxMPH,WindSpeedAvgMPH,GustSpeedMaxMPH,PrecipitationSumIn
2013-5-1,64.8,47.8,32.2,39.9,34.4,28.7,99,65,33,30.31,30.18,9,0,9,0.00
2013-5-2,69.3,53.9,38.3,45.2,39.0,32.6,85,59,37,30.28,30.10,8,1,8,0.00
2013-5-3,72.9,57.2,43.2,50.1,43.2,36.5,81,61,40,30.13,29.96,9,1,9,0.00
2013-5-4,77.2,61.0,43.5,51.2,44.4,39.2,99,59,28,29.97,29.73,9,1,9,0.00
2013-5-5,83.1,63.7,45.7,51.2,45.2,39.2,99,56,26,29.73,29.51,9,1,9,0.00
2013-5-6,86.4,65.6,47.5,51.3,45.7,42.4,99,55,22,29.59,29.49,8,0,8,0.00
2013-5-7,73.9,59.8,50.4,55.2,49.8,42.9,85,70,51,29.75,29.56,8,0,8,0.00
2013-5-8,69.1,58.4,49.8,55.8,52.6,47.8,99,83,57,29.88,29.75,4,0,4,0.00
2013-5-9,72.7,59.5,48.7,62.9,54.1,48.5,99,85,50,29.96,29.85,6,0,6,0.00
2013-5-10,139.5,73.8,52.3,99.9,60.8,51.9,99,77,39,29.94,29.84,5,0,5,0.00
2013-5-11,83.8,68.6,57.0,66.6,57.2,50.9,99,72,38,29.92,29.72,9,0,9,0.00
2013-5-12,76.3,67.0,61.5,71.7,62.9,53.6,99,89,54,29.85,29.75,8,0,8,0.26
2013-5-13,72.7,70.3,64.9,72.4,70.0,64.5,99,99,99,29.93,29.66,14,1,14,0.30
2013-5-14,88.3,76.1,72.7,87.7,75.8,72.4,99,99,99,29.97,29.85,7,0,7,0.00
2013-5-15,101.5,90.2,82.6,99.9,89.9,82.3,99,99,99,29.87,29.75,5,0,5,0.08
2013-5-16,108.0,98.7,90.0,99.9,98.2,89.6,99,99,99,29.76,29.60,7,0,7,0.28
2013-5-17,99.3,99.3,99.3,99.0,99.0,99.0,99,99,99,29.81,29.70,8,0,8,0.12
2013-5-18,99.3,99.3,99.3,99.0,99.0,99.0,99,99,99,30.01,29.80,7,0,7,0.00
2013-5-19,99.3,99.3,99.3,99.0,99.0,99.0,99,99,99,30.14,30.01,7,0,7,0.00
2013-5-20,99.3,99.3,99.3,99.0,99.0,99.0,99,99,99,30.09,29.62,0,0,0,0.00
2013-5-21,99.3,99.3,99.3,99.0,99.0,99.0,99,99,99,29.63,29.51,0,0,0,0.00
2013-5-22,99.3,99.3,99.3,99.0,99.0,99.0,99,99,99,29.67,29.60,0,0,0,0.00
2013-5-23,99.3,99.3,99.3,99.0,99.0,99.0,99,99,99,29.75,29.66,0,0,0,0.00
2013-5-24,99.3,99.3,99.3,99.0,99.0,99.0,99,99,99,29.80,29.70,0,0,0,0.00
2013-5-25,99.3,99.3,99.3,99.0,99.0,99.0,99,99,99,29.79,29.70,0,0,0,0.00
2013-5-26,99.3,99.3,99.3,99.0,99.0,99.0,99,99,99,29.73,29.67,0,0,0,0.00
2013-5-27,99.3,99.3,99.3,99.0,99.0,99.0,99,99,99,29.71,29.44,0,0,0,0.00
2013-5-28,99.3,99.3,99.3,99.0,99.0,99.0,99,99,99,29.63,29.51,0,0,0,0.00
2013-5-29,99.3,99.3,99.3,99.0,99.0,99.0,99,99,99,29.72,29.42,0,0,0,0.00
2013-5-30,99.3,99.3,99.3,99.0,99.0,99.0,99,99,99,29.99,29.72,0,0,0,0.00
2013-5-31,99.3,99.3,99.3,99.0,99.0,99.0,99,99,99,30.08,29.98,0,0,0,0.00